Tracking 27126 objects as of 30-Mar-2023
HD Live streaming from Space Station
objects crossing your sky now

EXPLORER 16

Track EXPLORER 16 now!
10-day predictions
EXPLORER 16 is classified as:


NORAD ID: 506
Int'l Code: 1962-070A
Perigee: 749.7 km
Apogee: 1,154.9 km
Inclination: 52.0 °
Period: 103.9 minutes
Semi major axis: 7323 km
RCS: 0.6378 m2 (medium)
Launch date: December 16, 1962
Source: United States (US)
Launch site: WALLOPS ISLAND (WLPIS)
Your satellite tracking list
Your tracking list is empty




NASA's NSSDC Master Catalog

Two Line Element Set (TLE):
1 00506U 62070A   23088.59691840  .00000052  00000-0  12817-3 0  9998
2 00506  52.0025 200.5899 0276698 331.2023  27.3862 13.85293107 45783
Source of the keplerian elements: AFSPC